Starlink 32513

operational
NORAD ID: 61964 Int'l Des: 2024-210 Owner: SPXS Country: US Constellation: starlink
LEOCIRCULAR

About Starlink 32513

Description loading...

Live Position

Loading 3D Globe...

Upcoming Passes

Altitude History

Altitude vs Time

uPlot chart will show altitude changes over time

Two-Line Element Set

1 61964U 24210F 25303.74178568 .00048023 00000-0 17414-2 0 9990
2 61964 42.9986 179.2025 0002540 284.8216 75.2354 15.27614579 55209
Epoch: Oct 30, 2025 • Age: 14 hours

Current Status

Altitude 482.9 km
Velocity 7.63 km/s
Sub-Earth Point 22.91°N, 41.6°E
Launch Date Nov 14, 2024
Age 0.9 years
Type internet

Technical Details

Classification Payload
Mass 730.00 kg
Dry Mass 700.00 kg
Total Mass 730.00 kg
Length 0.30 m
Diameter 4.10 m
Span 29.00 m
Shape Box + pan
Manufacturer SPXS
Bus Type Starlink V2M
Phase Status In Orbit
Owner/State SPXS/US

Large Constellations

Loading constellations...